OneWeb SL0362

operational
NORAD ID: 49288 Int'l Des: 2021-090 Owner: ONEWEBN Country: UK Constellation: oneweb
LEOCIRCULARPOLARONEWEB_TYPE

About OneWeb SL0362

Description loading...

Live Position

Loading 3D Globe...

Upcoming Passes

Altitude History

Altitude vs Time

uPlot chart will show altitude changes over time

Two-Line Element Set

1 49288U 21090K 25349.92804780 .00000121 00000-0 27112-3 0 9994
2 49288 87.9192 341.4492 0001680 79.4909 280.6413 13.19724884202745
Epoch: Dec 15, 2025 • Age: 14 hours

Current Status

Altitude 1188.1 km
Velocity 7.26 km/s
Sub-Earth Point 8.40°N, 102.5°W
Launch Date Oct 14, 2021
Age 4.1 years
Type internet

Technical Details

Classification Payload
Mass 148.00 kg
Dry Mass 140.00 kg
Total Mass 148.00 kg
Length 1.30 m
Diameter 1.00 m
Span 5.00 m
Shape Trapezoid+2 pan
Manufacturer ONEWUS
Bus Type ARROW
Phase Status In Orbit
Owner/State ONEWEBN/UK

Large Constellations

Loading constellations...